owner,sensor,date,latitude,longitude,vertical_datum,sea_water_practical_salinity,qcFlag 
TABS,ioos:station:wmo:42048:1,2013-02-01T00:00:00Z,27.9396,-96.8429,2.0,31.2766,11111222 
TABS,ioos:station:wmo:42048:1,2013-02-01T00:30:00Z,27.9396,-96.8429,2.0,31.3554,11111222 
TABS,ioos:station:wmo:42048:1,2013-02-01T01:00:00Z,27.9396,-96.8429,2.0,31.3878,11111222 
TABS,ioos:station:wmo:42048:1,2013-02-01T01:30:00Z,27.9396,-96.8429,2.0,31.3905,11111222 
TABS,ioos:station:wmo:42048:1,2013-02-01T02:00:00Z,27.9396,-96.8429,2.0,31.3976,11111222 
TABS,ioos:station:wmo:42048:1,2013-02-01T02:30:00Z,27.9396,-96.8429,2.0,31.4065,11111222 
TABS,ioos:station:wmo:42048:1,2013-02-01T03:00:00Z,27.9396,-96.8429,2.0,31.4166,11111222 
TABS,ioos:station:wmo:42048:1,2013-02-01T03:30:00Z,27.9396,-96.8429,2.0,31.4256,11111222 
TABS,ioos:station:wmo:42048:1,2013-02-01T04:00:00Z,27.9396,-96.8429,2.0,31.4345,11111222 
TABS,ioos:station:wmo:42048:1,2013-02-01T04:30:00Z,27.9396,-96.8429,2.0,31.445,11111222 
TABS,ioos:station:wmo:42048:1,2013-02-01T05:00:00Z,27.9396,-96.8429,2.0,31.4579,11111222 
TABS,ioos:station:wmo:42048:1,2013-02-01T05:30:00Z,27.9396,-96.8429,2.0,31.4643,11111222 
TABS,ioos:station:wmo:42048:1,2013-02-01T06:00:00Z,27.9396,-96.8429,2.0,31.4715,11111222 
TABS,ioos:station:wmo:42048:1,2013-02-01T06:30:00Z,27.9396,-96.8429,2.0,31.4811,11111222 
TABS,ioos:station:wmo:42048:1,2013-02-01T07:00:00Z,27.9396,-96.8429,2.0,31.4878,11111222 
TABS,ioos:station:wmo:42048:1,2013-02-01T07:30:00Z,27.9396,-96.8429,2.0,31.4931,11111222 
TABS,ioos:station:wmo:42048:1,2013-02-01T08:00:00Z,27.9396,-96.8429,2.0,31.4992,11111222 
TABS,ioos:station:wmo:42048:1,2013-02-01T08:30:00Z,27.9396,-96.8429,2.0,31.512,11111222 
TABS,ioos:station:wmo:42048:1,2013-02-01T09:00:00Z,27.9396,-96.8429,2.0,31.5217,11111222 
TABS,ioos:station:wmo:42048:1,2013-02-01T09:30:00Z,27.9396,-96.8429,2.0,31.5292,11111222 
TABS,ioos:station:wmo:42048:1,2013-02-01T10:00:00Z,27.9396,-96.8429,2.0,31.541,11111222 
TABS,ioos:station:wmo:42048:1,2013-02-01T10:30:00Z,27.9396,-96.8429,2.0,31.5508,11111222 
TABS,ioos:station:wmo:42048:1,2013-02-01T11:00:00Z,27.9396,-96.8429,2.0,31.5634,11111222 
TABS,ioos:station:wmo:42048:1,2013-02-01T11:30:00Z,27.9396,-96.8429,2.0,31.5509,11111222 
TABS,ioos:station:wmo:42048:1,2013-02-01T12:00:00Z,27.9396,-96.8429,2.0,31.5744,11111222 
TABS,ioos:station:wmo:42048:1,2013-02-01T12:30:00Z,27.9396,-96.8429,2.0,31.5831,11111222 
TABS,ioos:station:wmo:42048:1,2013-02-01T13:00:00Z,27.9396,-96.8429,2.0,31.5856,11111222 
TABS,ioos:station:wmo:42048:1,2013-02-01T13:30:00Z,27.9396,-96.8429,2.0,31.5873,11111222 
TABS,ioos:station:wmo:42048:1,2013-02-01T14:00:00Z,27.9396,-96.8429,2.0,31.5909,11111222 
TABS,ioos:station:wmo:42048:1,2013-02-01T14:30:00Z,27.9396,-96.8429,2.0,31.598,11111222 
TABS,ioos:station:wmo:42048:1,2013-02-01T15:00:00Z,27.9396,-96.8429,2.0,31.5999,11111222 
TABS,ioos:station:wmo:42048:1,2013-02-01T15:30:00Z,27.9396,-96.8429,2.0,31.6022,11111222 
TABS,ioos:station:wmo:42048:1,2013-02-01T16:00:00Z,27.9396,-96.8429,2.0,31.6025,11111222 
TABS,ioos:station:wmo:42048:1,2013-02-01T16:30:00Z,27.9396,-96.8429,2.0,31.5969,11111222 
TABS,ioos:station:wmo:42048:1,2013-02-01T17:00:00Z,27.9396,-96.8429,2.0,31.5915,11111222 
TABS,ioos:station:wmo:42048:1,2013-02-01T17:30:00Z,27.9396,-96.8429,2.0,31.6049,11111222 
TABS,ioos:station:wmo:42048:1,2013-02-01T18:00:00Z,27.9396,-96.8429,2.0,31.6102,11111222 
TABS,ioos:station:wmo:42048:1,2013-02-01T18:30:00Z,27.9396,-96.8429,2.0,31.6032,11111222 
TABS,ioos:station:wmo:42048:1,2013-02-01T19:00:00Z,27.9396,-96.8429,2.0,31.6063,11111222 
TABS,ioos:station:wmo:42048:1,2013-02-01T19:30:00Z,27.9396,-96.8429,2.0,31.5905,11111222 
TABS,ioos:station:wmo:42048:1,2013-02-01T20:00:00Z,27.9396,-96.8429,2.0,31.5885,11111222 
TABS,ioos:station:wmo:42048:1,2013-02-01T20:30:00Z,27.9396,-96.8429,2.0,31.5837,11111222 
TABS,ioos:station:wmo:42048:1,2013-02-01T21:00:00Z,27.9396,-96.8429,2.0,31.5871,11111222 
TABS,ioos:station:wmo:42048:1,2013-02-01T21:30:00Z,27.9396,-96.8429,2.0,31.5438,11111222 
TABS,ioos:station:wmo:42048:1,2013-02-01T22:00:00Z,27.9396,-96.8429,2.0,31.549,11111222 
TABS,ioos:station:wmo:42048:1,2013-02-01T22:30:00Z,27.9396,-96.8429,2.0,31.5397,11111222 
TABS,ioos:station:wmo:42048:1,2013-02-01T23:00:00Z,27.9396,-96.8429,2.0,31.531,11111222 
TABS,ioos:station:wmo:42048:1,2013-02-01T23:30:00Z,27.9396,-96.8429,2.0,31.5326,11111222 
TABS,ioos:station:wmo:42048:1,2013-02-02T00:00:00Z,27.9396,-96.8429,2.0,31.5281,11111222 
TABS,ioos:station:wmo:42048:1,2013-02-02T00:30:00Z,27.9396,-96.8429,2.0,31.5125,11111222 
TABS,ioos:station:wmo:42048:1,2013-02-02T01:00:00Z,27.9396,-96.8429,2.0,31.5094,11111222 
TABS,ioos:station:wmo:42048:1,2013-02-02T01:30:00Z,27.9396,-96.8429,2.0,31.4896,11111222 
TABS,ioos:station:wmo:42048:1,2013-02-02T02:00:00Z,27.9396,-96.8429,2.0,31.4664,11111222 
TABS,ioos:station:wmo:42048:1,2013-02-02T02:30:00Z,27.9396,-96.8429,2.0,31.4547,11111222 
TABS,ioos:station:wmo:42048:1,2013-02-02T03:00:00Z,27.9396,-96.8429,2.0,31.433,11111222 
TABS,ioos:station:wmo:42048:1,2013-02-02T03:30:00Z,27.9396,-96.8429,2.0,31.4179,11111222 
TABS,ioos:station:wmo:42048:1,2013-02-02T04:00:00Z,27.9396,-96.8429,2.0,31.4037,11111222 
TABS,ioos:station:wmo:42048:1,2013-02-02T04:30:00Z,27.9396,-96.8429,2.0,31.3823,11111222 
TABS,ioos:station:wmo:42048:1,2013-02-02T05:00:00Z,27.9396,-96.8429,2.0,31.3683,11111222 
TABS,ioos:station:wmo:42048:1,2013-02-02T05:30:00Z,27.9396,-96.8429,2.0,31.3516,11111222 
TABS,ioos:station:wmo:42048:1,2013-02-02T06:00:00Z,27.9396,-96.8429,2.0,31.3319,11111222 
TABS,ioos:station:wmo:42048:1,2013-02-02T06:30:00Z,27.9396,-96.8429,2.0,31.3124,11111222 
TABS,ioos:station:wmo:42048:1,2013-02-02T07:00:00Z,27.9396,-96.8429,2.0,31.3003,11111222 
TABS,ioos:station:wmo:42048:1,2013-02-02T07:30:00Z,27.9396,-96.8429,2.0,31.2859,11111222 
TABS,ioos:station:wmo:42048:1,2013-02-02T08:00:00Z,27.9396,-96.8429,2.0,31.2761,11111222 
TABS,ioos:station:wmo:42048:1,2013-02-02T08:30:00Z,27.9396,-96.8429,2.0,31.2713,11111222 
TABS,ioos:station:wmo:42048:1,2013-02-02T09:00:00Z,27.9396,-96.8429,2.0,31.2645,11111222 
TABS,ioos:station:wmo:42048:1,2013-02-02T09:30:00Z,27.9396,-96.8429,2.0,31.2528,11111222 
TABS,ioos:station:wmo:42048:1,2013-02-02T10:00:00Z,27.9396,-96.8429,2.0,31.2399,11111222 
TABS,ioos:station:wmo:42048:1,2013-02-02T10:30:00Z,27.9396,-96.8429,2.0,31.2474,11111222 
TABS,ioos:station:wmo:42048:1,2013-02-02T11:00:00Z,27.9396,-96.8429,2.0,31.2661,11111222 
TABS,ioos:station:wmo:42048:1,2013-02-02T11:30:00Z,27.9396,-96.8429,2.0,31.2875,11111222 
TABS,ioos:station:wmo:42048:1,2013-02-02T12:00:00Z,27.9396,-96.8429,2.0,31.3084,11111222 
TABS,ioos:station:wmo:42048:1,2013-02-02T12:30:00Z,27.9396,-96.8429,2.0,31.3421,11111222 
TABS,ioos:station:wmo:42048:1,2013-02-02T13:00:00Z,27.9396,-96.8429,2.0,31.3835,11111222 
TABS,ioos:station:wmo:42048:1,2013-02-02T13:30:00Z,27.9396,-96.8429,2.0,31.4002,11111222 
TABS,ioos:station:wmo:42048:1,2013-02-02T14:00:00Z,27.9396,-96.8429,2.0,31.3989,11111222 
TABS,ioos:station:wmo:42048:1,2013-02-02T14:30:00Z,27.9396,-96.8429,2.0,31.4322,11111222 
TABS,ioos:station:wmo:42048:1,2013-02-02T15:00:00Z,27.9396,-96.8429,2.0,31.4332,11111222 
TABS,ioos:station:wmo:42048:1,2013-02-02T15:30:00Z,27.9396,-96.8429,2.0,31.4226,11111222 
TABS,ioos:station:wmo:42048:1,2013-02-02T16:00:00Z,27.9396,-96.8429,2.0,31.4286,11111222 
TABS,ioos:station:wmo:42048:1,2013-02-02T16:30:00Z,27.9396,-96.8429,2.0,31.4463,11111222 
TABS,ioos:station:wmo:42048:1,2013-02-02T17:00:00Z,27.9396,-96.8429,2.0,31.429,11111222 
TABS,ioos:station:wmo:42048:1,2013-02-02T17:30:00Z,27.9396,-96.8429,2.0,31.4191,11111222 
TABS,ioos:station:wmo:42048:1,2013-02-02T18:00:00Z,27.9396,-96.8429,2.0,31.4073,11111222 
TABS,ioos:station:wmo:42048:1,2013-02-02T18:30:00Z,27.9396,-96.8429,2.0,31.4146,11111222 
TABS,ioos:station:wmo:42048:1,2013-02-02T19:00:00Z,27.9396,-96.8429,2.0,31.3976,11111222 
TABS,ioos:station:wmo:42048:1,2013-02-02T19:30:00Z,27.9396,-96.8429,2.0,31.3876,11111222 
TABS,ioos:station:wmo:42048:1,2013-02-02T20:00:00Z,27.9396,-96.8429,2.0,31.3748,11111222 
TABS,ioos:station:wmo:42048:1,2013-02-02T20:30:00Z,27.9396,-96.8429,2.0,31.4001,11111222 
TABS,ioos:station:wmo:42048:1,2013-02-02T21:00:00Z,27.9396,-96.8429,2.0,31.3637,11111222 
TABS,ioos:station:wmo:42048:1,2013-02-02T21:30:00Z,27.9396,-96.8429,2.0,31.2573,11111222 
TABS,ioos:station:wmo:42048:1,2013-02-02T22:00:00Z,27.9396,-96.8429,2.0,31.2767,11111222 
TABS,ioos:station:wmo:42048:1,2013-02-02T22:30:00Z,27.9396,-96.8429,2.0,31.2378,11111222 
TABS,ioos:station:wmo:42048:1,2013-02-02T23:00:00Z,27.9396,-96.8429,2.0,31.1923,11111222 
TABS,ioos:station:wmo:42048:1,2013-02-02T23:30:00Z,27.9396,-96.8429,2.0,31.1017,11111222 
TABS,ioos:station:wmo:42048:1,2013-02-03T00:00:00Z,27.9396,-96.8429,2.0,31.0544,11111222 
TABS,ioos:station:wmo:42048:1,2013-02-03T00:30:00Z,27.9396,-96.8429,2.0,31.0192,11111222 
TABS,ioos:station:wmo:42048:1,2013-02-03T01:00:00Z,27.9396,-96.8429,2.0,30.9969,11111222 
TABS,ioos:station:wmo:42048:1,2013-02-03T01:30:00Z,27.9396,-96.8429,2.0,30.9873,11111222 
TABS,ioos:station:wmo:42048:1,2013-02-03T02:00:00Z,27.9396,-96.8429,2.0,30.9973,11111222 
TABS,ioos:station:wmo:42048:1,2013-02-03T02:30:00Z,27.9396,-96.8429,2.0,31.0013,11111222 
TABS,ioos:station:wmo:42048:1,2013-02-03T03:00:00Z,27.9396,-96.8429,2.0,30.999,11111222 
TABS,ioos:station:wmo:42048:1,2013-02-03T03:30:00Z,27.9396,-96.8429,2.0,30.9995,11111222 
TABS,ioos:station:wmo:42048:1,2013-02-03T04:00:00Z,27.9396,-96.8429,2.0,30.9979,11111222 
TABS,ioos:station:wmo:42048:1,2013-02-03T04:30:00Z,27.9396,-96.8429,2.0,30.9834,11111222 
TABS,ioos:station:wmo:42048:1,2013-02-03T05:00:00Z,27.9396,-96.8429,2.0,30.9599,11111222 
TABS,ioos:station:wmo:42048:1,2013-02-03T05:30:00Z,27.9396,-96.8429,2.0,30.9584,11111222 
TABS,ioos:station:wmo:42048:1,2013-02-03T06:00:00Z,27.9396,-96.8429,2.0,30.9243,11111222 
TABS,ioos:station:wmo:42048:1,2013-02-03T06:30:00Z,27.9396,-96.8429,2.0,30.8883,11111222 
TABS,ioos:station:wmo:42048:1,2013-02-03T07:00:00Z,27.9396,-96.8429,2.0,30.8855,11111222 
TABS,ioos:station:wmo:42048:1,2013-02-03T07:30:00Z,27.9396,-96.8429,2.0,30.8672,11111222 
TABS,ioos:station:wmo:42048:1,2013-02-03T08:00:00Z,27.9396,-96.8429,2.0,30.8661,11111222 
TABS,ioos:station:wmo:42048:1,2013-02-03T08:30:00Z,27.9396,-96.8429,2.0,30.8655,11111222 
TABS,ioos:station:wmo:42048:1,2013-02-03T09:00:00Z,27.9396,-96.8429,2.0,30.8621,11111222 
TABS,ioos:station:wmo:42048:1,2013-02-03T09:30:00Z,27.9396,-96.8429,2.0,30.866,11111222 
TABS,ioos:station:wmo:42048:1,2013-02-03T10:00:00Z,27.9396,-96.8429,2.0,30.8681,11111222 
TABS,ioos:station:wmo:42048:1,2013-02-03T10:30:00Z,27.9396,-96.8429,2.0,30.8735,11111222 
TABS,ioos:station:wmo:42048:1,2013-02-03T11:00:00Z,27.9396,-96.8429,2.0,30.8824,11111222 
TABS,ioos:station:wmo:42048:1,2013-02-03T11:30:00Z,27.9396,-96.8429,2.0,30.8786,11111222 
TABS,ioos:station:wmo:42048:1,2013-02-03T12:00:00Z,27.9396,-96.8429,2.0,30.8755,11111222 
TABS,ioos:station:wmo:42048:1,2013-02-03T12:30:00Z,27.9396,-96.8429,2.0,30.8682,11111222 
TABS,ioos:station:wmo:42048:1,2013-02-03T13:00:00Z,27.9396,-96.8429,2.0,30.865,11111222 
TABS,ioos:station:wmo:42048:1,2013-02-03T13:30:00Z,27.9396,-96.8429,2.0,30.8594,11111222 
TABS,ioos:station:wmo:42048:1,2013-02-03T14:00:00Z,27.9396,-96.8429,2.0,30.8533,11111222 
TABS,ioos:station:wmo:42048:1,2013-02-03T14:30:00Z,27.9396,-96.8429,2.0,30.8506,11111222 
TABS,ioos:station:wmo:42048:1,2013-02-03T15:00:00Z,27.9396,-96.8429,2.0,30.8475,11111222 
TABS,ioos:station:wmo:42048:1,2013-02-03T15:30:00Z,27.9396,-96.8429,2.0,30.8496,11111222 
TABS,ioos:station:wmo:42048:1,2013-02-03T16:00:00Z,27.9396,-96.8429,2.0,30.8483,11111222 
TABS,ioos:station:wmo:42048:1,2013-02-03T16:30:00Z,27.9396,-96.8429,2.0,30.8547,11111222 
TABS,ioos:station:wmo:42048:1,2013-02-03T17:00:00Z,27.9396,-96.8429,2.0,30.8591,11111222 
TABS,ioos:station:wmo:42048:1,2013-02-03T17:30:00Z,27.9396,-96.8429,2.0,30.8608,11111222 
TABS,ioos:station:wmo:42048:1,2013-02-03T18:00:00Z,27.9396,-96.8429,2.0,30.8854,11111222 
TABS,ioos:station:wmo:42048:1,2013-02-03T18:30:00Z,27.9396,-96.8429,2.0,30.8914,11111222 
TABS,ioos:station:wmo:42048:1,2013-02-03T19:00:00Z,27.9396,-96.8429,2.0,30.9021,11111222 
TABS,ioos:station:wmo:42048:1,2013-02-03T19:30:00Z,27.9396,-96.8429,2.0,30.9075,11111222 
TABS,ioos:station:wmo:42048:1,2013-02-03T20:00:00Z,27.9396,-96.8429,2.0,30.9384,11111222 
TABS,ioos:station:wmo:42048:1,2013-02-03T20:30:00Z,27.9396,-96.8429,2.0,30.9294,11111222 
TABS,ioos:station:wmo:42048:1,2013-02-03T21:00:00Z,27.9396,-96.8429,2.0,30.9199,11111222 
TABS,ioos:station:wmo:42048:1,2013-02-03T21:30:00Z,27.9396,-96.8429,2.0,30.918,11111222 
TABS,ioos:station:wmo:42048:1,2013-02-03T22:00:00Z,27.9396,-96.8429,2.0,30.9054,11111222 
TABS,ioos:station:wmo:42048:1,2013-02-03T22:30:00Z,27.9396,-96.8429,2.0,30.9006,11111222 
TABS,ioos:station:wmo:42048:1,2013-02-03T23:00:00Z,27.9396,-96.8429,2.0,30.8938,11111222 
TABS,ioos:station:wmo:42048:1,2013-02-03T23:30:00Z,27.9396,-96.8429,2.0,30.8967,11111222 
TABS,ioos:station:wmo:42048:1,2013-02-04T00:00:00Z,27.9396,-96.8429,2.0,30.8826,11111222 
TABS,ioos:station:wmo:42048:1,2013-02-04T00:30:00Z,27.9396,-96.8429,2.0,30.8841,11111222 
TABS,ioos:station:wmo:42048:1,2013-02-04T01:00:00Z,27.9396,-96.8429,2.0,30.8744,11111222 
TABS,ioos:station:wmo:42048:1,2013-02-04T01:30:00Z,27.9396,-96.8429,2.0,30.8651,11111222 
TABS,ioos:station:wmo:42048:1,2013-02-04T02:00:00Z,27.9396,-96.8429,2.0,30.8574,11111222 
TABS,ioos:station:wmo:42048:1,2013-02-04T02:30:00Z,27.9396,-96.8429,2.0,30.8476,11111222 
TABS,ioos:station:wmo:42048:1,2013-02-04T03:00:00Z,27.9396,-96.8429,2.0,30.8433,11111222 
TABS,ioos:station:wmo:42048:1,2013-02-04T03:30:00Z,27.9396,-96.8429,2.0,30.836,11111222 
TABS,ioos:station:wmo:42048:1,2013-02-04T04:00:00Z,27.9396,-96.8429,2.0,30.83,11111222 
TABS,ioos:station:wmo:42048:1,2013-02-04T10:30:00Z,27.9396,-96.8429,2.0,30.8108,11111222 
TABS,ioos:station:wmo:42048:1,2013-02-04T11:00:00Z,27.9396,-96.8429,2.0,30.8126,11111222 
TABS,ioos:station:wmo:42048:1,2013-02-04T11:30:00Z,27.9396,-96.8429,2.0,30.8145,11111222 
TABS,ioos:station:wmo:42048:1,2013-02-04T12:00:00Z,27.9396,-96.8429,2.0,30.8134,11111222 
TABS,ioos:station:wmo:42048:1,2013-02-04T12:30:00Z,27.9396,-96.8429,2.0,30.8203,11111222 
TABS,ioos:station:wmo:42048:1,2013-02-04T13:00:00Z,27.9396,-96.8429,2.0,30.8324,11111222 
TABS,ioos:station:wmo:42048:1,2013-02-04T13:30:00Z,27.9396,-96.8429,2.0,30.8299,11111222 
TABS,ioos:station:wmo:42048:1,2013-02-04T14:00:00Z,27.9396,-96.8429,2.0,30.8287,11111222 
TABS,ioos:station:wmo:42048:1,2013-02-04T14:30:00Z,27.9396,-96.8429,2.0,30.8327,11111222 
TABS,ioos:station:wmo:42048:1,2013-02-04T15:00:00Z,27.9396,-96.8429,2.0,30.8336,11111222 
TABS,ioos:station:wmo:42048:1,2013-02-04T15:30:00Z,27.9396,-96.8429,2.0,30.8381,11111222 
TABS,ioos:station:wmo:42048:1,2013-02-04T16:00:00Z,27.9396,-96.8429,2.0,30.84,11111222 
TABS,ioos:station:wmo:42048:1,2013-02-04T16:30:00Z,27.9396,-96.8429,2.0,30.8491,11111222 
TABS,ioos:station:wmo:42048:1,2013-02-04T17:00:00Z,27.9396,-96.8429,2.0,30.8553,11111222 
TABS,ioos:station:wmo:42048:1,2013-02-04T17:30:00Z,27.9396,-96.8429,2.0,30.8697,11111222 
TABS,ioos:station:wmo:42048:1,2013-02-04T18:00:00Z,27.9396,-96.8429,2.0,30.8792,11111222 
TABS,ioos:station:wmo:42048:1,2013-02-04T18:30:00Z,27.9396,-96.8429,2.0,30.8904,11111222 
TABS,ioos:station:wmo:42048:1,2013-02-04T19:00:00Z,27.9396,-96.8429,2.0,30.9082,11111222 
TABS,ioos:station:wmo:42048:1,2013-02-04T19:30:00Z,27.9396,-96.8429,2.0,30.9226,11111222 
TABS,ioos:station:wmo:42048:1,2013-02-04T20:00:00Z,27.9396,-96.8429,2.0,30.9359,11111222 
TABS,ioos:station:wmo:42048:1,2013-02-04T20:30:00Z,27.9396,-96.8429,2.0,30.949,11111222 
TABS,ioos:station:wmo:42048:1,2013-02-04T21:00:00Z,27.9396,-96.8429,2.0,30.9622,11111222 
TABS,ioos:station:wmo:42048:1,2013-02-04T21:30:00Z,27.9396,-96.8429,2.0,30.9693,11111222 
TABS,ioos:station:wmo:42048:1,2013-02-04T22:00:00Z,27.9396,-96.8429,2.0,31.0082,11111222 
TABS,ioos:station:wmo:42048:1,2013-02-04T22:30:00Z,27.9396,-96.8429,2.0,31.0104,11111222 
TABS,ioos:station:wmo:42048:1,2013-02-04T23:00:00Z,27.9396,-96.8429,2.0,31.0039,11111222 
TABS,ioos:station:wmo:42048:1,2013-02-04T23:30:00Z,27.9396,-96.8429,2.0,31.0001,11111222 
TABS,ioos:station:wmo:42048:1,2013-02-05T00:00:00Z,27.9396,-96.8429,2.0,31.0043,11111222 
TABS,ioos:station:wmo:42048:1,2013-02-05T00:30:00Z,27.9396,-96.8429,2.0,31.0016,11111222 
TABS,ioos:station:wmo:42048:1,2013-02-05T01:00:00Z,27.9396,-96.8429,2.0,31.0013,11111222 
TABS,ioos:station:wmo:42048:1,2013-02-05T01:30:00Z,27.9396,-96.8429,2.0,31.0093,11111222 
TABS,ioos:station:wmo:42048:1,2013-02-05T02:00:00Z,27.9396,-96.8429,2.0,31.0056,11111222 
TABS,ioos:station:wmo:42048:1,2013-02-05T02:30:00Z,27.9396,-96.8429,2.0,31.016,11111222 
TABS,ioos:station:wmo:42048:1,2013-02-05T03:00:00Z,27.9396,-96.8429,2.0,31.0106,11111222 
TABS,ioos:station:wmo:42048:1,2013-02-05T03:30:00Z,27.9396,-96.8429,2.0,31.0185,11111222 
TABS,ioos:station:wmo:42048:1,2013-02-05T04:00:00Z,27.9396,-96.8429,2.0,31.0215,11111222 
TABS,ioos:station:wmo:42048:1,2013-02-05T04:30:00Z,27.9396,-96.8429,2.0,31.0272,11111222 
TABS,ioos:station:wmo:42048:1,2013-02-05T05:00:00Z,27.9396,-96.8429,2.0,31.0273,11111222 
TABS,ioos:station:wmo:42048:1,2013-02-05T05:30:00Z,27.9396,-96.8429,2.0,31.0252,11111222 
TABS,ioos:station:wmo:42048:1,2013-02-05T06:00:00Z,27.9396,-96.8429,2.0,31.0261,11111222 
TABS,ioos:station:wmo:42048:1,2013-02-05T06:30:00Z,27.9396,-96.8429,2.0,31.0187,11111222 
TABS,ioos:station:wmo:42048:1,2013-02-05T07:00:00Z,27.9396,-96.8429,2.0,31.0219,11111222 
TABS,ioos:station:wmo:42048:1,2013-02-05T07:30:00Z,27.9396,-96.8429,2.0,31.0205,11111222 
TABS,ioos:station:wmo:42048:1,2013-02-05T08:00:00Z,27.9396,-96.8429,2.0,31.02,11111222 
TABS,ioos:station:wmo:42048:1,2013-02-05T08:30:00Z,27.9396,-96.8429,2.0,31.0217,11111222 
TABS,ioos:station:wmo:42048:1,2013-02-05T09:00:00Z,27.9396,-96.8429,2.0,31.0259,11111222 
TABS,ioos:station:wmo:42048:1,2013-02-05T09:30:00Z,27.9396,-96.8429,2.0,31.0501,11111222 
TABS,ioos:station:wmo:42048:1,2013-02-05T10:00:00Z,27.9396,-96.8429,2.0,31.0334,11111222 
TABS,ioos:station:wmo:42048:1,2013-02-05T10:30:00Z,27.9396,-96.8429,2.0,31.0302,11111222 
TABS,ioos:station:wmo:42048:1,2013-02-05T11:00:00Z,27.9396,-96.8429,2.0,31.036,11111222 
TABS,ioos:station:wmo:42048:1,2013-02-05T11:30:00Z,27.9396,-96.8429,2.0,31.0491,11111222 
TABS,ioos:station:wmo:42048:1,2013-02-05T12:00:00Z,27.9396,-96.8429,2.0,31.0534,11111222 
TABS,ioos:station:wmo:42048:1,2013-02-05T12:30:00Z,27.9396,-96.8429,2.0,31.0761,11111222 
TABS,ioos:station:wmo:42048:1,2013-02-05T13:00:00Z,27.9396,-96.8429,2.0,31.0877,11111222 
TABS,ioos:station:wmo:42048:1,2013-02-05T13:30:00Z,27.9396,-96.8429,2.0,31.0898,11111222 
TABS,ioos:station:wmo:42048:1,2013-02-05T14:00:00Z,27.9396,-96.8429,2.0,31.1006,11111222 
TABS,ioos:station:wmo:42048:1,2013-02-05T14:30:00Z,27.9396,-96.8429,2.0,31.1063,11111222 
TABS,ioos:station:wmo:42048:1,2013-02-05T15:00:00Z,27.9396,-96.8429,2.0,31.1314,11111222 
TABS,ioos:station:wmo:42048:1,2013-02-05T15:30:00Z,27.9396,-96.8429,2.0,31.1573,11111222 
TABS,ioos:station:wmo:42048:1,2013-02-05T16:00:00Z,27.9396,-96.8429,2.0,31.2226,11111222 
TABS,ioos:station:wmo:42048:1,2013-02-05T16:30:00Z,27.9396,-96.8429,2.0,31.2806,11111222 
TABS,ioos:station:wmo:42048:1,2013-02-05T17:00:00Z,27.9396,-96.8429,2.0,31.3545,11111222 
TABS,ioos:station:wmo:42048:1,2013-02-05T17:30:00Z,27.9396,-96.8429,2.0,31.3875,11111222 
TABS,ioos:station:wmo:42048:1,2013-02-05T18:00:00Z,27.9396,-96.8429,2.0,31.4146,11111222 
TABS,ioos:station:wmo:42048:1,2013-02-05T18:30:00Z,27.9396,-96.8429,2.0,31.3744,11111222 
TABS,ioos:station:wmo:42048:1,2013-02-05T19:00:00Z,27.9396,-96.8429,2.0,31.3857,11111222 
TABS,ioos:station:wmo:42048:1,2013-02-05T19:30:00Z,27.9396,-96.8429,2.0,31.4261,11111222 
TABS,ioos:station:wmo:42048:1,2013-02-05T20:00:00Z,27.9396,-96.8429,2.0,31.4885,11111222 
TABS,ioos:station:wmo:42048:1,2013-02-05T20:30:00Z,27.9396,-96.8429,2.0,31.5741,11111222 
TABS,ioos:station:wmo:42048:1,2013-02-05T21:00:00Z,27.9396,-96.8429,2.0,31.5822,11111222 
TABS,ioos:station:wmo:42048:1,2013-02-05T21:30:00Z,27.9396,-96.8429,2.0,31.5487,11111222 
TABS,ioos:station:wmo:42048:1,2013-02-05T22:00:00Z,27.9396,-96.8429,2.0,31.6658,11111222 
TABS,ioos:station:wmo:42048:1,2013-02-05T22:30:00Z,27.9396,-96.8429,2.0,31.4796,11111222 
TABS,ioos:station:wmo:42048:1,2013-02-05T23:00:00Z,27.9396,-96.8429,2.0,31.5274,11111222 
TABS,ioos:station:wmo:42048:1,2013-02-05T23:30:00Z,27.9396,-96.8429,2.0,31.4932,11111222 
TABS,ioos:station:wmo:42048:1,2013-02-06T00:00:00Z,27.9396,-96.8429,2.0,31.483,11111222 
TABS,ioos:station:wmo:42048:1,2013-02-06T00:30:00Z,27.9396,-96.8429,2.0,31.4791,11111222 
TABS,ioos:station:wmo:42048:1,2013-02-06T01:00:00Z,27.9396,-96.8429,2.0,31.4332,11111222 
TABS,ioos:station:wmo:42048:1,2013-02-06T01:30:00Z,27.9396,-96.8429,2.0,31.418,11111222 
TABS,ioos:station:wmo:42048:1,2013-02-06T02:00:00Z,27.9396,-96.8429,2.0,31.3845,11111222 
TABS,ioos:station:wmo:42048:1,2013-02-06T02:30:00Z,27.9396,-96.8429,2.0,31.3713,11111222 
TABS,ioos:station:wmo:42048:1,2013-02-06T03:00:00Z,27.9396,-96.8429,2.0,31.3796,11111222 
TABS,ioos:station:wmo:42048:1,2013-02-06T03:30:00Z,27.9396,-96.8429,2.0,31.3718,11111222 
TABS,ioos:station:wmo:42048:1,2013-02-06T04:00:00Z,27.9396,-96.8429,2.0,31.3823,11111222 
TABS,ioos:station:wmo:42048:1,2013-02-06T04:30:00Z,27.9396,-96.8429,2.0,31.397,11111222 
TABS,ioos:station:wmo:42048:1,2013-02-06T05:00:00Z,27.9396,-96.8429,2.0,31.4438,11111222 
TABS,ioos:station:wmo:42048:1,2013-02-06T05:30:00Z,27.9396,-96.8429,2.0,31.5065,11111222 
TABS,ioos:station:wmo:42048:1,2013-02-06T06:00:00Z,27.9396,-96.8429,2.0,31.5481,11111222 
TABS,ioos:station:wmo:42048:1,2013-02-06T06:30:00Z,27.9396,-96.8429,2.0,31.5807,11111222 
TABS,ioos:station:wmo:42048:1,2013-02-06T07:00:00Z,27.9396,-96.8429,2.0,31.5376,11111222 
TABS,ioos:station:wmo:42048:1,2013-02-06T07:30:00Z,27.9396,-96.8429,2.0,31.5299,11111222 
TABS,ioos:station:wmo:42048:1,2013-02-06T08:00:00Z,27.9396,-96.8429,2.0,31.5096,11111222 
TABS,ioos:station:wmo:42048:1,2013-02-06T08:30:00Z,27.9396,-96.8429,2.0,31.52,11111222 
TABS,ioos:station:wmo:42048:1,2013-02-06T09:00:00Z,27.9396,-96.8429,2.0,31.5049,11111222 
TABS,ioos:station:wmo:42048:1,2013-02-06T09:30:00Z,27.9396,-96.8429,2.0,31.4772,11111222 
TABS,ioos:station:wmo:42048:1,2013-02-06T10:00:00Z,27.9396,-96.8429,2.0,31.5164,11111222 
TABS,ioos:station:wmo:42048:1,2013-02-06T10:30:00Z,27.9396,-96.8429,2.0,31.5099,11111222 
TABS,ioos:station:wmo:42048:1,2013-02-06T11:00:00Z,27.9396,-96.8429,2.0,31.5259,11111222 
TABS,ioos:station:wmo:42048:1,2013-02-06T11:30:00Z,27.9396,-96.8429,2.0,31.4944,11111222 
TABS,ioos:station:wmo:42048:1,2013-02-06T12:00:00Z,27.9396,-96.8429,2.0,31.5202,11111222 
TABS,ioos:station:wmo:42048:1,2013-02-06T12:30:00Z,27.9396,-96.8429,2.0,31.5344,11111222 
TABS,ioos:station:wmo:42048:1,2013-02-06T13:00:00Z,27.9396,-96.8429,2.0,31.7114,11111222 
TABS,ioos:station:wmo:42048:1,2013-02-06T13:30:00Z,27.9396,-96.8429,2.0,31.7451,11111222 
TABS,ioos:station:wmo:42048:1,2013-02-06T14:00:00Z,27.9396,-96.8429,2.0,31.8708,11111222 
TABS,ioos:station:wmo:42048:1,2013-02-06T14:30:00Z,27.9396,-96.8429,2.0,31.8048,11111222 
TABS,ioos:station:wmo:42048:1,2013-02-06T15:00:00Z,27.9396,-96.8429,2.0,31.4941,11111222 
TABS,ioos:station:wmo:42048:1,2013-02-06T15:30:00Z,27.9396,-96.8429,2.0,31.4437,11111222 
TABS,ioos:station:wmo:42048:1,2013-02-06T16:00:00Z,27.9396,-96.8429,2.0,31.4508,11111222 
TABS,ioos:station:wmo:42048:1,2013-02-06T16:30:00Z,27.9396,-96.8429,2.0,31.3015,11111222 
TABS,ioos:station:wmo:42048:1,2013-02-06T17:00:00Z,27.9396,-96.8429,2.0,31.2823,11111222 
TABS,ioos:station:wmo:42048:1,2013-02-06T17:30:00Z,27.9396,-96.8429,2.0,31.2579,11111222 
TABS,ioos:station:wmo:42048:1,2013-02-06T18:00:00Z,27.9396,-96.8429,2.0,30.9975,11111222 